Regional Weather Roundup
Issued by NWS

Home | Current Version | Previous Version | Text Only | Print | Product List | Glossary On
Versions: 1 2 3 4 5 6 7 8 9 10 11 12 13 14 15 16 17 18 19 20 21 22 23 24 25 26 27 28
000
ASUS45 KBOU 221607
RWRCO

WEATHER ROUNDUP FOR COLORADO
NATIONAL WEATHER SERVICE DENVER/BOULDER CO
1000 AM MDT TUE AUG 22 2017

NOTE: "FAIR" INDICATES FEW OR NO CLOUDS BELOW 12000 FEET WITH NO
SIGNIFICANT WEATHER AND/OR OBSTRUCTIONS TO VISIBILITY.

COZ001>005-013-030-031-221700-
...NORTHWEST COLORADO...

CITY           SKY/WX    TMP DP  RH WIND       PRES   REMARKS
CRAIG          FAIR      72  41  32 CALM      30.36F
HAYDEN         FAIR      70  40  33 E7        30.40S
MEEKER         FAIR      70  41  34 CALM      30.37F
RABBIT EARS PA FAIR      57  34  41 W7        30.67R
STEAMBOAT SPGS FAIR      65  42  42 CALM      30.41F
WALDEN         FAIR      63  39  42 E5        30.50S
$$

COZ006>008-011-221700-
...WEST CENTRAL VALLEYS...

CITY           SKY/WX    TMP DP  RH WIND       PRES   REMARKS
GRAND JUNCTION FAIR      79  44  28 SE12      30.27S
MONTROSE       PTSUNNY   68  44  42 CALM      30.37R
EAGLE          FAIR      64  40  41 CALM      30.44F
RIFLE          FAIR      72  44  36 VRB3      30.33F
DELTA          FAIR      71  47  43 CALM      30.33S HAZE
NUCLA          FAIR      73  41  31 CALM      30.40S
$$

COZ017>023-064>068-221700-
...SOUTHWEST COLORADO...

CITY           SKY/WX    TMP DP  RH WIND       PRES   REMARKS
DURANGO        FAIR      68  46  45 E7        30.42S
CORTEZ         CLOUDY    64  54  69 CALM      30.38R
PAGOSA SPRINGS CLOUDY    62  45  53 CALM      30.49R
TELLURIDE      NOT AVBL
WOLF CREEK PAS CLOUDY    45  39  81 CALM      30.81R
$$

COZ009-010-012-014-032>034-037-058>063-221700-
...CENTRAL COLORADO...

CITY           SKY/WX    TMP DP  RH WIND       PRES   REMARKS
ASPEN          FAIR      65  40  39 N3        30.47S
BUENA VISTA    CLOUDY    59  44  59 CALM      30.52S
COPPER MTN     FAIR      59  32  36 CALM      30.78R
BERTHOUD PASS  FAIR      48  43  81 W13       30.81R
COTTONWOOD PAS PTSUNNY   59  41  51 E6        30.64R
GUNNISON       FAIR      56  45  66 CALM      30.52S
KREMMLING      FAIR      66  43  42 CALM      30.49S
LEADVILLE      FAIR      56  36  47 CALM      30.62S
MONARCH PASS   PTSUNNY   54  34  47 E6        30.87R
SALIDA         FAIR      59  47  64 CALM      30.58S
SUNLIGHT       FAIR      55  34  44 CALM      30.71R
WILKERSON PASS FAIR      52  32  46 SW5       30.76R
$$

COZ069>075-221700-
...SAN LUIS VALLEY/SANGRE DE CRISTO MOUNTAINS...

CITY           SKY/WX    TMP DP  RH WIND       PRES   REMARKS
ALAMOSA        PTSUNNY   61  47  59 CALM      30.48R
DEL NORTE      CLOUDY    59  46  62 W10       30.52R
LA VETA PASS   NOT AVBL
SAGUACHE         N/A    N/A N/A N/A MISG        N/A
$$

COZ035-036-038>040-221700-
...NORTHERN COLORADO FRONT RANGE...

CITY           SKY/WX    TMP DP  RH WIND       PRES   REMARKS
DENVER INTL AP PTSUNNY   71  55  56 SE9       30.34S
DMNS CITY PARK   N/A     70  51  50 NE2G12    30.34S
AURORA         MOSUNNY   69  50  51 CALM      30.36S
FRONT RANGE AP PTSUNNY   70  57  64 SE7       30.36S
ERIE MUNI ARPT FAIR      68  58  68 N3        30.38S
BOULDER MUN AP FAIR      68  54  60 CALM      30.35R
CENTENNIAL     FAIR      68  49  50 CALM      30.37R
BROOMFIELD     PTSUNNY   66  54  63 CALM      30.37R
FORT COLLINS   CLOUDY    65  58  78 SE8       30.35S
LONGMONT       PTSUNNY   69  58  66 E5        30.36R
$$

COZ041-046-047-076>085-087-088-221700-
...PIKES PEAK/PALMER DIVIDE AND SOUTHERN FOOTHILLS...

CITY           SKY/WX    TMP DP  RH WIND       PRES   REMARKS
COLO. SPRINGS  CLOUDY    64  58  80 S8        30.43R
A. F. ACADEMY  PTSUNNY   63  55  74 S9        30.43R
SCHRIEVER AFB  CLOUDY    59  57  93 SE7       30.43S
CHEYENNE MTN   PTSUNNY   59  57  93 SE14G20   30.40R
ELLICOTT       CLOUDY   N/A N/A N/A S8        30.42R
FALCON         CLOUDY    60  57  91 S16       30.47R
FORT CARSON    PTSUNNY   66  59  78 SE12      30.40S
LIMON          PTSUNNY   64  56  75 S10       30.39S
MONUMENT HILL  FAIR      64  55  72 S16       30.45S
CANON CITY     SUNNY     72  54  53 CALM      30.38R
WALSENBURG     NOT AVBL
TRINIDAD       PTSUNNY   67  56  67 N3        30.40S
$$

COZ042>045-048>051-090-091-221700-
...NORTHEAST COLORADO...

CITY           SKY/WX    TMP DP  RH WIND       PRES   REMARKS
GREELEY ARPT   CLOUDY    65  59  81 SE10      30.34S
AKRON          FAIR      67  53  61 SE14G20   30.36R
BURLINGTON     PTSUNNY   70  56  61 E10       30.35R
WRAY           NOT AVBL
YUMA           FAIR      63  45  51 S7        30.35S
STERLING       FAIR      68  57  68 S5        30.33S
HOLYOKE        FAIR      72  54  53 SE7       30.34R
FORT MORGAN    PTSUNNY   69  54  58 SE9       30.36R
$$

COZ086-089-092>099-221700-
...SOUTHEAST COLORADO...

CITY           SKY/WX    TMP DP  RH WIND       PRES   REMARKS
PUEBLO         CLOUDY    68  61  78 E8        30.36R
LA JUNTA       CLOUDY    70  61  73 E8        30.34R
LAMAR          FAIR      72  57  59 E12       30.30R
SPRINGFIELD      N/A     69  63  81 NE15      30.32R
$$




USA.gov is the U.S. government's official web portal to all federal, state and local government web resources and services.